Location: Shepherdstown, WV
(39.4326°N, 77.8042°W)
Time: 05:49:43
(UTC-04:00)

Vanguard 3 - Pass Details

Date: 02 August 2021
Orbit: 510 x 3260 km, 33.3° (Epoch: 21 September)

Event Time Altitude Azimuth Distance (km) Brightness Sun altitude
Rises 00:44:13 0° 283° (WNW) 7,083 12.2 -32.3°
Reaches altitude 10° 00:49:19 10° 276° (W) 6,172 11.7 -32.5°
Maximum altitude 01:06:35 39° 217° (SW) 3,982 10.2 -32.8°
Enters shadow 01:07:12 39° 214° (SSW) 3,961 10.1 -32.8°
Drops below altitude 10° 01:20:29 10° 155° (SSE) 4,980 - -32.9°
Sets 01:24:07 0° 148° (SSE) 5,645 - -32.9°
